When you browse on this site, cookies collect data to enhance your experience and personalize the content and advertising you see.
Visit our Privacy Policy to learn more. By continuing to use the site, you agree to this use of cookies and data.
  • En España
  • Lista de países
  • Para 7 días
  • Temperatura del agua
  • El tiempo en el mapa
  • Informadores
  • user-avatar
    Iniciar sesión

    Tiempo cada hora Vilagarcía de Arousa

    Hoy, 31 Marzo, Martes

    Tiempo Temperatura Precipitaciones Viento Presión Humedad
    00:00 +3°C° 0 mm 6 mps 756 mmHg 75%
    01:00 +3°C° 0 mm 6 mps 755 mmHg 76%
    02:00 +2°C° 0 mm 6 mps 754 mmHg 76%
    03:00 +2°C° 0 mm 6 mps 754 mmHg 77%
    04:00 +2°C° 0 mm 6 mps 753 mmHg 78%
    05:00 +2°C° 0 mm 6 mps 753 mmHg 79%
    06:00 +4°C° 0 mm 6 mps 753 mmHg 72%
    07:00 +5°C° 0 mm 6 mps 752 mmHg 65%
    08:00 +8°C° 0 mm 6 mps 752 mmHg 57%
    09:00 +8°C° 0.1 mm 5 mps 751 mmHg 58%
    10:00 +8°C° 0.1 mm 5 mps 751 mmHg 59%
    11:00 +10°C° 0 mm 4 mps 751 mmHg 62%
    12:00 +12°C° 0 mm 4 mps 750 mmHg 56%
    13:00 +14°C° 0 mm 3 mps 750 mmHg 50%
    14:00 +16°C° 0 mm 3 mps 750 mmHg 44%
    15:00 +14°C° 0 mm 3 mps 750 mmHg 51%
    16:00 +13°C° 0 mm 3 mps 750 mmHg 58%
    17:00 +12°C° 0 mm 3 mps 750 mmHg 65%
    18:00 +11°C° 0 mm 3 mps 750 mmHg 72%
    19:00 +9°C° 0 mm 2 mps 750 mmHg 79%
    20:00 +8°C° 0 mm 2 mps 751 mmHg 86%
    21:00 +8°C° 0.1 mm 2 mps 751 mmHg 86%
    22:00 +8°C° 0.1 mm 2 mps 751 mmHg 86%
    23:00 +8°C° 0.1 mm 2 mps 751 mmHg 86%

    Mañana, 1 Abril, Miércoles

    Tiempo Temperatura Precipitaciones Viento Presión Humedad
    00:00 +8°C° 1.4 mm 2 mps 751 mmHg 90%
    01:00 +8°C° 1.4 mm 2 mps 751 mmHg 94%
    02:00 +9°C° 1.4 mm 1 mps 751 mmHg 98%
    03:00 +8°C° 0.4 mm 2 mps 752 mmHg 97%
    04:00 +8°C° 0.4 mm 2 mps 752 mmHg 97%
    05:00 +7°C° 0.4 mm 2 mps 752 mmHg 97%
    06:00 +9°C° 0 mm 2 mps 753 mmHg 92%
    07:00 +11°C° 0 mm 1 mps 754 mmHg 86%
    08:00 +12°C° 0 mm 1 mps 754 mmHg 81%
    09:00 +13°C° 0 mm 1 mps 754 mmHg 70%
    10:00 +15°C° 0 mm 1 mps 755 mmHg 59%
    11:00 +18°C° 0 mm 1 mps 755 mmHg 48%
    12:00 +17°C° 0.1 mm 2 mps 755 mmHg 52%
    13:00 +16°C° 0.1 mm 3 mps 755 mmHg 55%
    14:00 +15°C° 0.1 mm 4 mps 755 mmHg 58%
    15:00 +14°C° 0.2 mm 4 mps 755 mmHg 68%
    16:00 +13°C° 0.2 mm 3 mps 755 mmHg 79%
    17:00 +12°C° 0.2 mm 3 mps 755 mmHg 89%
    18:00 +11°C° 0 mm 3 mps 755 mmHg 92%
    19:00 +10°C° 0 mm 3 mps 756 mmHg 94%
    20:00 +9°C° 0 mm 2 mps 756 mmHg 97%
    21:00 +9°C° 0 mm 2 mps 756 mmHg 97%
    22:00 +9°C° 0 mm 3 mps 756 mmHg 97%
    23:00 +9°C° 0 mm 3 mps 756 mmHg 97%

    Pasado mañana, 2 Abril, Jueves

    Tiempo Temperatura Precipitaciones Viento Presión Humedad
    00:00 +9°C° 0 mm 3 mps 756 mmHg 96%
    01:00 +10°C° 0 mm 3 mps 756 mmHg 96%
    02:00 +10°C° 0 mm 3 mps 756 mmHg 95%
    03:00 +10°C° 0 mm 3 mps 756 mmHg 95%
    04:00 +10°C° 0 mm 3 mps 756 mmHg 96%
    05:00 +9°C° 0 mm 3 mps 756 mmHg 96%
    06:00 +11°C° 0 mm 3 mps 757 mmHg 91%
    07:00 +12°C° 0 mm 3 mps 757 mmHg 86%
    08:00 +13°C° 0 mm 4 mps 757 mmHg 81%
    09:00 +15°C° 0 mm 4 mps 757 mmHg 73%
    10:00 +17°C° 0 mm 4 mps 757 mmHg 64%
    11:00 +19°C° 0 mm 3 mps 757 mmHg 55%
    12:00 +19°C° 0 mm 4 mps 757 mmHg 53%
    13:00 +20°C° 0 mm 4 mps 757 mmHg 51%
    14:00 +20°C° 0 mm 4 mps 757 mmHg 49%
    15:00 +19°C° 0 mm 4 mps 757 mmHg 54%
    16:00 +17°C° 0 mm 4 mps 757 mmHg 59%
    17:00 +15°C° 0 mm 4 mps 757 mmHg 64%
    18:00 +13°C° 0 mm 4 mps 757 mmHg 71%
    19:00 +11°C° 0 mm 4 mps 758 mmHg 78%
    20:00 +8°C° 0 mm 4 mps 758 mmHg 85%
    21:00 +7°C° 0 mm 4 mps 758 mmHg 87%
    22:00 +7°C° 0 mm 4 mps 758 mmHg 89%
    23:00 +6°C° 0 mm 4 mps 758 mmHg 90%

    3 Abril, Viernes

    Tiempo Temperatura Precipitaciones Viento Presión Humedad
    00:00 +7°C° 0 mm 3 mps 758 mmHg 92%
    01:00 +5°C° 0 mm 3 mps 757 mmHg 93%
    02:00 +5°C° 0 mm 3 mps 757 mmHg 95%
    03:00 +6°C° 0 mm 2 mps 757 mmHg 95%
    04:00 +6°C° 0 mm 2 mps 757 mmHg 96%
    05:00 +5°C° 0 mm 2 mps 757 mmHg 96%
    06:00 +8°C° 0 mm 2 mps 757 mmHg 85%
    07:00 +12°C° 0 mm 1 mps 757 mmHg 74%
    08:00 +15°C° 0 mm 1 mps 757 mmHg 63%
    09:00 +18°C° 0 mm 1 mps 756 mmHg 58%
    10:00 +18°C° 0 mm 2 mps 756 mmHg 52%
    11:00 +20°C° 0 mm 2 mps 756 mmHg 47%
    12:00 +20°C° 0 mm 2 mps 756 mmHg 47%
    13:00 +20°C° 0 mm 2 mps 756 mmHg 48%
    14:00 +20°C° 0 mm 3 mps 755 mmHg 49%
    15:00 +19°C° 0 mm 2 mps 755 mmHg 55%
    16:00 +19°C° 0 mm 1 mps 755 mmHg 61%
    17:00 +18°C° 0 mm 1 mps 754 mmHg 68%
    18:00 +15°C° 0 mm 1 mps 755 mmHg 75%
    19:00 +13°C° 0 mm 1 mps 755 mmHg 82%
    20:00 +11°C° 0 mm 1 mps 755 mmHg 90%
    21:00 +11°C° 0 mm 1 mps 755 mmHg 89%
    22:00 +11°C° 0 mm 1 mps 756 mmHg 89%
    23:00 +10°C° 0 mm 2 mps 756 mmHg 88%

    4 Abril, Sábado

    Tiempo Temperatura Precipitaciones Viento Presión Humedad
    00:00 +9°C° 0 mm 2 mps 755 mmHg 87%
    01:00 +9°C° 0 mm 2 mps 755 mmHg 86%
    02:00 +9°C° 0 mm 2 mps 754 mmHg 85%
    03:00 +9°C° 0 mm 2 mps 754 mmHg 82%
    04:00 +8°C° 0 mm 2 mps 754 mmHg 78%
    05:00 +8°C° 0 mm 2 mps 754 mmHg 75%
    06:00 +12°C° 0 mm 2 mps 754 mmHg 68%
    07:00 +14°C° 0 mm 2 mps 753 mmHg 61%
    08:00 +17°C° 0 mm 2 mps 753 mmHg 53%
    09:00 +18°C° 0 mm 3 mps 753 mmHg 51%
    10:00 +19°C° 0 mm 3 mps 753 mmHg 49%
    11:00 +21°C° 0 mm 4 mps 753 mmHg 47%
    12:00 +20°C° 0 mm 4 mps 753 mmHg 49%
    13:00 +20°C° 0 mm 3 mps 752 mmHg 51%
    14:00 +20°C° 0 mm 3 mps 752 mmHg 52%
    15:00 +19°C° 0 mm 2 mps 751 mmHg 58%
    16:00 +18°C° 0 mm 2 mps 751 mmHg 65%
    17:00 +18°C° 0 mm 1 mps 751 mmHg 71%
    18:00 +16°C° 0 mm 2 mps 751 mmHg 74%
    19:00 +15°C° 0 mm 2 mps 751 mmHg 76%
    20:00 +14°C° 0 mm 2 mps 751 mmHg 79%
    21:00 +14°C° 0 mm 3 mps 751 mmHg 76%
    22:00 +14°C° 0 mm 3 mps 751 mmHg 74%
    23:00 +14°C° 0 mm 4 mps 750 mmHg 71%

    5 Abril, Domingo

    Tiempo Temperatura Precipitaciones Viento Presión Humedad
    00:00 +14°C° 0.4 mm 4 mps 750 mmHg 75%
    01:00 +14°C° 0.4 mm 4 mps 749 mmHg 79%
    02:00 +13°C° 0.4 mm 5 mps 748 mmHg 83%
    03:00 +13°C° 1.2 mm 5 mps 748 mmHg 87%
    04:00 +13°C° 1.2 mm 5 mps 748 mmHg 92%
    05:00 +13°C° 1.2 mm 5 mps 748 mmHg 96%
    06:00 +13°C° 0.7 mm 5 mps 748 mmHg 96%
    07:00 +13°C° 0.7 mm 5 mps 748 mmHg 96%
    08:00 +13°C° 0.7 mm 5 mps 748 mmHg 97%
    09:00 +13°C° 1.4 mm 5 mps 748 mmHg 97%
    10:00 +14°C° 1.4 mm 5 mps 749 mmHg 97%
    11:00 +14°C° 1.4 mm 5 mps 749 mmHg 97%
    12:00 +14°C° 0.6 mm 6 mps 749 mmHg 94%
    13:00 +14°C° 0.6 mm 6 mps 749 mmHg 91%
    14:00 +15°C° 0.6 mm 7 mps 749 mmHg 87%
    15:00 +14°C° 0.3 mm 7 mps 750 mmHg 88%
    16:00 +14°C° 0.3 mm 7 mps 750 mmHg 89%
    17:00 +14°C° 0.3 mm 7 mps 750 mmHg 90%
    18:00 +13°C° 0.3 mm 6 mps 751 mmHg 92%
    19:00 +13°C° 0.3 mm 6 mps 751 mmHg 93%
    20:00 +12°C° 0.3 mm 5 mps 752 mmHg 95%
    21:00 +12°C° 0.1 mm 5 mps 752 mmHg 95%
    22:00 +12°C° 0.1 mm 5 mps 753 mmHg 95%
    23:00 +12°C° 0.1 mm 5 mps 754 mmHg 95%
    Mostrar más